Location: Nitra
(0.0000°N, 18.0833°E)
Time: 13:35:42
(UTC+02:00)

Courier 1B Rocket - All Passes

Search period start: 26 March 2023 00:00
Search period end: 05 April 2023 01:00
Orbit: 920 x 1202 km, 28.2° (Epoch: 25 March)

Date Brightness Start Highest point End Pass type
(mag) Time Alt. Az. Time Alt. Az. Time Alt. Az.
26 Mar - 00:43:52 10° N 00:46:06 12° NNE 00:48:20 10° NE night (unlit)
26 Mar - 03:34:04 10° NW 03:39:58 44° NNE 03:46:06 10° E visible
26 Mar - 05:27:17 10° WNW 05:33:24 49° SSW 05:39:56 10° SE visible
26 Mar - 07:23:49 10° SW 07:27:34 15° SSW 07:31:26 10° SSE daylight
26 Mar - 13:11:19 10° S 13:15:18 15° SSE 13:19:18 10° SE daylight
26 Mar - 15:02:36 10° SW 15:09:55 42° SSE 15:17:03 10° E daylight
26 Mar - 16:56:09 10° WSW 17:03:50 64° NNW 17:11:06 10° NE daylight
26 Mar - 18:52:43 10° WNW 18:57:50 20° NNW 19:02:43 10° NNE daylight
27 Mar - 02:33:35 10° NNW 02:38:51 28° NNE 02:44:11 10° E night (unlit)
27 Mar - 04:26:01 10° WNW 04:32:17 75° SSW 04:38:53 10° SE visible
27 Mar - 06:21:15 10° WSW 06:26:03 21° SSW 06:31:07 10° SSE visible
27 Mar - 12:12:46 10° SSE 12:13:26 10° SSE 12:14:06 10° SSE daylight
27 Mar - 14:01:47 10° SSW 14:08:24 29° SSE 14:14:58 10° E daylight
27 Mar - 15:54:35 10° WSW 16:02:28 89° SSE 16:10:03 10° ENE daylight
27 Mar - 17:49:55 10° W 17:56:22 29° NNW 18:02:30 10° NNE daylight
28 Mar - 01:33:24 10° NNW 01:37:38 19° NNE 01:41:51 10° ENE night (unlit)
28 Mar - 03:25:02 10° NW 03:31:14 71° NNE 03:37:37 10° ESE visible
28 Mar - 05:19:14 10° W 05:24:45 31° SSW 05:30:32 10° SSE visible
28 Mar - 13:01:15 10° SSW 13:06:47 21° SSE 13:12:22 10° ESE daylight
28 Mar - 14:53:18 10° SW 15:01:04 62° SSE 15:08:40 10° ENE daylight
28 Mar - 16:47:39 10° W 16:54:57 43° NNW 17:01:57 10° NE daylight
28 Mar - 18:45:51 10° NW 18:49:17 13° NNW 18:52:37 10° N daylight
29 Mar - 00:33:44 10° N 00:36:16 12° NNE 00:38:47 10° NE night (unlit)
29 Mar - 02:24:15 10° NW 02:30:11 45° NNE 02:36:09 10° E night (unlit)
29 Mar - 04:17:37 10° WNW 04:23:34 46° SSW 04:29:46 10° SE visible
29 Mar - 06:14:27 10° SW 06:17:37 14° SSW 06:20:52 10° S visible
29 Mar - 12:01:10 10° S 12:05:05 14° SSE 12:09:02 10° SE daylight
29 Mar - 13:52:18 10° SW 13:59:36 43° SSE 14:06:55 10° E daylight
29 Mar - 15:45:47 10° WSW 15:53:33 63° NNW 16:01:05 10° NE daylight
29 Mar - 17:42:18 10° WNW 17:47:40 20° NNW 17:52:52 10° NNE daylight
30 Mar - 01:23:41 10° NNW 01:29:04 29° NNE 01:34:23 10° E night (unlit)
30 Mar - 03:16:16 10° WNW 03:22:29 73° SSW 03:28:50 10° SE visible
30 Mar - 05:11:43 10° WSW 05:16:11 20° SSW 05:20:48 10° SSE visible
30 Mar - 12:51:34 10° SSW 12:58:06 30° SSE 13:04:44 10° E daylight
30 Mar - 14:44:16 10° WSW 14:52:08 90° NNW 14:59:55 10° ENE daylight
30 Mar - 16:39:33 10° W 16:46:08 29° NNW 16:52:32 10° NNE daylight
31 Mar - 00:23:20 10° NNW 00:27:49 20° NNE 00:32:11 10° ENE night (unlit)
31 Mar - 02:15:12 10° NW 02:21:27 73° NNE 02:27:42 10° ESE night (unlit)
31 Mar - 04:09:35 10° W 04:14:54 29° SSW 04:20:23 10° SSE visible
31 Mar - 11:51:09 10° SSW 11:56:32 21° SSE 12:02:03 10° ESE daylight
31 Mar - 13:43:04 10° SW 13:50:43 63° SSE 13:58:28 10° ENE daylight
31 Mar - 15:37:19 10° W 15:44:39 42° NNW 15:51:51 10° NE daylight
31 Mar - 17:35:23 10° NW 17:39:08 14° NNW 17:42:48 10° N daylight
31 Mar - 23:23:23 10° N 23:26:25 13° NNE 23:29:23 10° NE night (unlit)
01 Apr - 01:14:18 10° NW 01:20:24 46° NNE 01:26:20 10° ESE night (unlit)
01 Apr - 03:07:52 10° W 03:13:46 45° SSW 03:19:46 10° SE visible
01 Apr - 05:05:06 10° SW 05:07:45 13° SSW 05:10:26 10° S visible
01 Apr - 10:51:15 10° S 10:54:54 14° SSE 10:58:37 10° SE daylight
01 Apr - 12:42:09 10° SW 12:49:17 43° SSE 12:56:38 10° E daylight
01 Apr - 14:35:32 10° WSW 14:43:12 62° NNW 14:50:54 10° NE daylight
01 Apr - 16:31:57 10° WNW 16:37:26 20° NNW 16:42:51 10° NNE daylight
02 Apr - 00:13:37 10° NNW 00:19:14 30° NNE 00:24:41 10° E night (unlit)
02 Apr - 02:06:25 10° WNW 02:12:43 71° SSW 02:18:57 10° SE night (unlit)
02 Apr - 04:02:06 10° WSW 04:06:21 19° SSW 04:10:39 10° SSE visible
02 Apr - 11:41:31 10° SSW 11:47:50 30° SSE 11:54:24 10° E daylight
02 Apr - 13:34:06 10° WSW 13:41:47 88° NNW 13:49:40 10° ENE daylight
02 Apr - 15:29:16 10° W 15:35:51 29° NNW 15:42:23 10° NNE daylight
02 Apr - 23:13:06 10° NNW 23:17:57 21° NNE 23:22:37 10° ENE night (unlit)
03 Apr - 01:05:13 10° NW 01:11:40 75° NNE 01:17:55 10° ESE night (unlit)
03 Apr - 02:59:50 10° W 03:05:06 28° SSW 03:10:24 10° SSE night (unlit)
03 Apr - 10:41:14 10° SSW 10:46:21 20° SSE 10:51:39 10° ESE daylight
03 Apr - 12:32:58 10° SW 12:40:24 64° SSE 12:48:08 10° ENE daylight
03 Apr - 14:27:08 10° W 14:34:19 42° NNW 14:41:37 10° NE daylight
03 Apr - 16:25:02 10° NW 16:28:55 14° NNW 16:32:46 10° N daylight
03 Apr - 22:12:52 10° N 22:16:30 15° NNE 22:20:00 10° NE visible
04 Apr - 00:04:12 10° NW 00:10:34 48° NNE 00:16:38 10° ESE night (unlit)
04 Apr - 01:57:58 10° W 02:03:59 43° SSW 02:09:53 10° SE night (unlit)
04 Apr - 03:55:38 10° SW 03:57:54 12° SSW 04:00:11 10° S visible
04 Apr - 09:41:32 10° S 09:44:47 13° SSE 09:48:06 10° SE daylight
04 Apr - 11:32:09 10° SW 11:39:01 43° SSE 11:46:16 10° E daylight
04 Apr - 13:25:24 10° WSW 13:32:52 60° NNW 13:40:35 10° NE daylight
04 Apr - 15:21:43 10° WNW 15:27:11 20° NNW 15:32:39 10° NNE daylight
04 Apr - 21:13:34 10° N 21:14:51 10° NNE 21:16:07 10° NNE visible
04 Apr - 23:03:22 10° NW 23:09:22 32° NNE 23:15:03 10° E night (unlit)
